Location: Krasnoyarskiy Pitomnik
(51.1333°N, 71.6167°E)
Time: 10:17:52
(UTC+00:00)

Cosmos 1605 Rocket - Pass Details

Date: 22 October 2021
Orbit: 945 x 1006 km, 82.9° (Epoch: 06 December)

Event Time Altitude Azimuth Distance (km) Brightness Sun altitude
Rises 14:22:18 0° 194° (SSW) 3,664 7.1 -21.9°
Reaches altitude 10° 14:24:48 10° 196° (SSW) 2,730 6.4 -22.3°
Maximum altitude 14:31:04 75° 281° (W) 1,033 4.2 -23.3°
Drops below altitude 10° 14:37:28 10° 7° (N) 2,784 6.4 -24.3°
Sets 14:40:03 0° 10° (N) 3,743 7.1 -24.7°
